Retour au catalogue

IRNSS 1E

ActifNavigationGEO
NORAD 41241·PAYLOAD·🇮🇳 India

Lancé Jan 20, 2016 depuis Satish Dhawan Space Centre

Loading…

TLE

FraisSource: CelesTrak SupGP

Époque: Sep 14, 2026, 23:59 UTC

1 41241C 16003A   26257.99979167 -.00000215  00000+0  00000+0 0  2575
2 41241  33.4302  58.4515 0021494 180.6845 226.5999  1.00275866    17

Suivez IRNSS 1E en temps réel avec AllMySat

Download on the App Store